Location: Unspecified
(17.6330°N, 0.0000°E)
Time: 03:12:40
(UTC+00:00)

S-56A Canister/Altair - Pass Details

Date: 01 July 2019
Orbit: 632 x 2500 km, 38.9° (Epoch: 21 July)

Event Time Altitude Azimuth Distance (km) Brightness Sun altitude
Rises 08:19:16 0° 198° (SSW) 5,744 11.7 37.4°
Reaches altitude 10° 08:23:45 10° 187° (S) 4,930 11.5 38.4°
Maximum altitude 08:35:15 28° 134° (SE) 3,853 11.8 41.1°
Drops below altitude 10° 08:46:45 10° 83° (E) 4,989 12.7 43.7°
Sets 08:51:12 0° 72° (ENE) 5,827 12.8 44.7°
